Pescara, Italy

2:18 AM CEST on May 30, 2017 (GMT +0200)
Pescara

Weather History for LIBP - March, 2013

Change the Weather History Date:

Tuesday, March 26, 2013

  Actual Average Record
Temperature  
Mean Temperature 46 °F -  
Max Temperature 48 °F 63 °F 75 °F (2015)
Min Temperature 44 °F 44 °F 33 °F (2002)
Degree Days  
Heating Degree Days 19    
Moisture  
Dew Point 36 °F    
Average Humidity 69    
Maximum Humidity 81    
Minimum Humidity 61    
Precipitation  
Precipitation 0.00 in 0.07 in - ()
Sea Level Pressure  
Sea Level Pressure 29.59 in    
Wind  
Wind Speed 3 mph ()    
Max Wind Speed 8 mph    
Max Gust Speed -    
Visibility 5.4 miles    
Events Rain    
Averages and records for this station are not official NWS values.
T = Trace of Precipitation, MM = Missing Value Source: Averaged Metar Reports

Daily Weather History Graph

Daily Weather History Graph

Search for Another Location

Airport or City:

Trip Planner

Search our weather history database for the weather conditions in past years. The results will help you decide how hot, cold, wet, or windy it might be!

Date:

Astronomy

Mar. 26, 2013 Rise Set
Actual Time 5:56 AM CET 6:22 PM CET
Civil Twilight 5:27 AM CET 6:50 PM CET
Nautical Twilight 4:54 AM CET 7:23 PM CET
Astronomical Twilight 4:20 AM CET 7:57 PM CET
Moon 5:40 PM CET (3/26) 5:03 AM CET (3/26)
Length of Visible Light 13h 22m
Length of Day
12h 26m
Waxing Gibbous, 99% of the Moon is Illuminated
Mar 26
Waxing Gibbous
Mar 27
Full
Apr 3
Last Quarter
Apr 10
New
Apr 18
First Quarter

Hourly Weather History & Observations

Time (CET) Temp. Windchill Dew Point Humidity Pressure Visibility Wind Dir Wind Speed Gust Speed Precip Events Conditions
12:50 AM 46.4 °F 43.5 °F 35.6 °F 66% 29.56 in 6.2 mi NNW 5.8 mph - N/A   Mostly Cloudy
1:50 AM 46.4 °F 42.4 °F 35.6 °F 66% 29.56 in 6.2 mi NNW 8.1 mph - N/A   Mostly Cloudy
2:50 AM 44.6 °F 43.1 °F 33.8 °F 66% 29.53 in 6.2 mi Variable 3.5 mph - N/A   Mostly Cloudy
3:50 AM 44.6 °F - 33.8 °F 66% 29.56 in 6.2 mi Variable 1.2 mph - N/A   Mostly Cloudy
4:50 AM 44.6 °F - 32.0 °F 61% 29.53 in 6.2 mi Variable 1.2 mph - N/A   Mostly Cloudy
5:50 AM 44.6 °F - 33.8 °F 66% 29.56 in 6.2 mi Variable 1.2 mph - N/A   Scattered Clouds
6:50 AM 44.6 °F - 33.8 °F 66% 29.56 in 6.2 mi Variable 1.2 mph - N/A   Mostly Cloudy
7:50 AM 44.6 °F - 33.8 °F 66% 29.59 in 6.2 mi Variable 1.2 mph - N/A   Mostly Cloudy
8:50 AM 46.4 °F 45.2 °F 35.6 °F 66% 29.59 in 6.2 mi Variable 3.5 mph - N/A   Mostly Cloudy
9:50 AM 46.4 °F 43.5 °F 35.6 °F 66% 29.59 in 6.2 mi North 5.8 mph - N/A   Mostly Cloudy
10:50 AM 46.4 °F 43.5 °F 35.6 °F 66% 29.62 in 6.2 mi NNE 5.8 mph - N/A   Mostly Cloudy
11:50 AM 48.2 °F - 35.6 °F 62% 29.59 in 6.2 mi NNE 5.8 mph - N/A   Mostly Cloudy
12:50 PM 46.4 °F 42.9 °F 35.6 °F 66% 29.59 in 6.2 mi NNE 6.9 mph - N/A   Mostly Cloudy
1:50 PM 48.2 °F - 35.6 °F 62% 29.56 in 6.2 mi North 4.6 mph - N/A   Mostly Cloudy
2:50 PM 48.2 °F - 37.4 °F 66% 29.59 in 6.2 mi North 4.6 mph - N/A   Mostly Cloudy
3:50 PM 46.4 °F 45.2 °F 35.6 °F 66% 29.56 in 6.2 mi Variable 3.5 mph - N/A   Mostly Cloudy
4:50 PM 46.4 °F 44.3 °F 37.4 °F 71% 29.56 in 6.2 mi North 4.6 mph - N/A   Light Drizzle
5:50 PM 46.4 °F 45.2 °F 37.4 °F 71% 29.59 in 6.2 mi Variable 3.5 mph - N/A   Mostly Cloudy
6:50 PM 46.4 °F - 39.2 °F 76% 29.62 in 4.3 mi Variable 1.2 mph - N/A   Mostly Cloudy
7:50 PM 46.4 °F - 39.2 °F 76% 29.62 in 2.5 mi Variable 2.3 mph - N/A   Light Drizzle
8:50 PM 46.4 °F - 39.2 °F 76% 29.65 in 2.5 mi Variable 2.3 mph - N/A   Mostly Cloudy
9:50 PM 46.4 °F - 39.2 °F 76% 29.62 in 2.5 mi Variable 1.2 mph - N/A   Mostly Cloudy
10:50 PM 44.6 °F 42.2 °F 39.2 °F 81% 29.65 in 3.1 mi NNW 4.6 mph - N/A   Mostly Cloudy
11:50 PM 44.6 °F - 39.2 °F 81% 29.65 in 3.1 mi Variable 2.3 mph - N/A Rain Rain